Regional Weather Roundup
Issued by NWS Sterling, VA

Home | Current Version | Previous Version | Text Only | Print | Product List | Glossary Off
Versions: 1 2 3 4 5 6 7 8 9 10 11 12 13 14 15 16 17 18 19 20 21 22 23 24 25 26 27 28 29 30 31 32 33 34 35 36 37 38 39 40 41 42 43 44 45 46 47 48 49 50

585
ASUS41 KLWX 010310
RWRLWX

REGIONAL WEATHER ROUNDUP
NATIONAL WEATHER SERVICE BALTIMORE MD/WASHINGTON DC
1100 PM EDT SAT APR 30 2016

Note: "FAIR" indicates few or no clouds below 12,000 feet
with no significant weather and/or obstructions to visibility.
 TC=TEMPERATURE CELSIUS

 * =Non NWS site. Station does not report precipitation (e.g. rain,
    snow, etc.), thunder, or fog.

DCZ001-MDZ009-015-VAZ040>042-051-053>054-010400-
WASHINGTON METRO

CITY           SKY/WX    TMP DP  RH WIND       PRES   REMARKS
WASHINGTON NAT CLOUDY    54  50  86 S7        30.21F
DULLES         LGT RAIN  52  50  93 S6        30.19F
ANDREWS AFB    CLOUDY    52  50  93 SE7       30.19F
FT BELVOIR     LGT RAIN  53  51  93 SE6       30.20F
QUANTICO       LGT RAIN  56  50  80 S13       30.21F
COLLEGE PARK*  CLOUDY    52  50  93 CALM      30.20F
LEESBURG*      LGT RAIN  54  54 100 S5        30.20F
MANASSAS*      CLOUDY    54  52  94 SE7       30.18F
GAITHERSBURG*  CLOUDY    52  46  82 SE6       30.22F

$$

MDZ006>007-011-014-010400-
BALTIMORE METRO

CITY           SKY/WX    TMP DP  RH WIND       PRES   REMARKS
BWI AIRPORT    LGT RAIN  53  50  89 CALM      30.20F
MD SCIENCE CTR   N/A     56  49  77 MISG      30.21F
MARTIN STATE   CLOUDY    54  50  87 E6        30.23S
ANNAPOLIS      LGT RAIN  55  49  80 MISG      30.21S
FORT MEADE*    CLOUDY    52  48  87 CALM      30.23S

$$

MDZ012-015-019>023-010400-
MARYLAND EASTERN SHORE

CITY           SKY/WX    TMP DP  RH WIND       PRES   REMARKS
OCEAN CITY     CLOUDY    51  45  79 E8        30.23F
SALISBURY      CLOUDY    50  45  83 E5        30.22F
CAMBRIDGE*     CLOUDY    50  41  71 SE6       30.23R
EASTON*        CLOUDY   N/A N/A N/A SE5       30.27

$$

MDZ017>025-010400-
SOUTHERN MARYLAND

CITY           SKY/WX    TMP DP  RH WIND       PRES   REMARKS
PATUXENT RIVER CLOUDY    54  45  71 SE9       30.22R
ST INIGOES       N/A    N/A N/A N/A MISG        N/A
LEONARDTOWN*   CLOUDY    52  46  82 SE3       30.23S

$$

MDZ003>005-010400-
NORTH CENTRAL MARYLAND

CITY           SKY/WX    TMP DP  RH WIND       PRES   REMARKS
FREDERICK*     CLOUDY    50  50 100 CALM      30.21F FOG
HAGERSTOWN APT CLOUDY    52  48  86 S8        30.17F
WESTMINSTER*   DRIZZLE   52  48  87 SE7       30.19S

$$

MDZ501>502-010400-
WESTERN MARYLAND

CITY           SKY/WX    TMP DP  RH WIND       PRES   REMARKS
OAKLAND*       FOG       45  45 100 SE15G23   30.06F VSB 1/4
CUMBERLAND*    CLOUDY    52  52 100 S5        30.16F

$$

VAZ025>031-010400-
SHENANDOAH VALLEY

CITY           SKY/WX    TMP DP  RH WIND       PRES   REMARKS
WINCHESTER*    CLOUDY    52  50  93 SE5       30.16S
FRONT ROYAL*   CLOUDY    52  50  93 CALM      30.14R
LURAY*         CLOUDY    54  54 100 CALM      30.15R
NEW MARKET*    CLOUDY    54  52  94 W3        30.14R
STAUNTON*      DRIZZLE   55  55  99 CALM      30.15S
WAYNESBORO*    CLOUDY    52  50  95 MISG      30.14F

$$

WVZ021-048>050-054>055-010400-
EASTERN WEST VIRGINIA PANHANDLE

CITY           SKY/WX    TMP DP  RH WIND       PRES   REMARKS
MARTINSBURG    CLOUDY    51  49  92 CALM      30.16F FOG
PETERSBURG*    LGT RAIN  56  55  97 CALM      30.11F

$$

VAZ036>039-050-010400-
CENTRAL FOOTHILLS

CITY           SKY/WX    TMP DP  RH WIND       PRES   REMARKS
CHARLOTTESVILL CLOUDY    54  52  93 E3        30.16F FOG
CULPEPER*      DRIZZLE   53  53  98 CALM      30.18F
ORANGE*        DRIZZLE   54  54 100 CALM      30.20F
GORDONSVILLE*  CLOUDY    53  53  99 CALM      30.16F
WARRENTON*     RAIN      53  48  83 SE6       30.17F

$$

VAZ055>057-010400-
NORTH AND CENTRAL PIEDMONT

CITY           SKY/WX    TMP DP  RH WIND       PRES   REMARKS
FREDERICKSBRG* DRIZZLE   54  54 100 CALM      30.19F
STAFFORD*      RAIN      52  50  93 CALM      30.23F

$$

NCZ024-NYZ072-PAZ021-071-VAZ022-071-010400-
OTHER REGIONAL OBSERVATIONS

CITY           SKY/WX    TMP DP  RH WIND       PRES   REMARKS
NEW YORK CITY  CLEAR     50  37  61 S8        30.26S
PHILADELPHIA   CLOUDY    53  35  50 SE6       30.24S
PITTSBURGH     LGT RAIN  56  53  90 SE12      29.98F
ROANOKE        LGT RAIN  54  53  97 SE6       30.18S
RICHMOND       CLOUDY    54  51  90 E6        30.20S
RALEIGH        CLOUDY    60  56  86 E6        30.16F

$$

ANZ530>537-010400-
MARINE OBSERVATIONS

STATION/POSITION TIME  TEMP    WIND        PRES
                       AIR SEA DIR/SP/G
                 (UTC) (F)     (DEG/KT/KT) (MB)
THOMAS PT LIGHT  0300   54 57  130/ 14/ 16 1024.2R
BALT KEY BRIDGE  0200   56     140/  8/  9 1022.7F
COVE POINT       0200   54     160/ 12/ 17 1023.5S
LEWISETTA        0200   54 60  150/  9/ 10 1023.0R
SOLOMONS ISLAND  0200   55 59  140/ 12/ 14   N/A
PINEY POINT      0200          160/ 15/ 16   N/A

$$





USA.gov is the U.S. government's official web portal to all federal, state and local government web resources and services.